Location: Kuppenheim
(48.8299°N, 8.2568°E)
Time: 14:03:45
(UTC+00:00)

ATLAS 5 CENTAUR R/B - Visible Passes

Search period start: 22 October 2021 00:00
Search period end: 01 November 2021 00:00
Orbit: 499 x 1157 km, 63.3° (Epoch: 17 October)

Date Brightness Start Highest point End Pass type
(mag) Time Alt. Az. Time Alt. Az. Time Alt. Az.
22 Oct 3.1 18:30:22 10° W 18:33:58 30° NNW 18:36:43 17° NNE visible
22 Oct 4.6 20:17:27 10° NW 20:18:15 12° NNW 20:18:15 12° NNW visible
23 Oct 3.0 18:10:51 10° W 18:14:30 31° NNW 18:17:59 13° NNE visible
23 Oct 4.3 19:57:55 10° NW 19:59:31 14° NNW 19:59:31 14° NNW visible
24 Oct 2.9 17:51:21 10° W 17:55:01 33° NW 17:59:13 10° NNE visible
24 Oct 4.2 19:38:23 10° NW 19:40:45 15° NNW 19:40:45 15° NNW visible
25 Oct 2.8 17:31:50 10° WSW 17:35:32 35° NW 17:39:46 10° NNE visible
25 Oct 4.0 19:18:51 10° NW 19:21:34 16° N 19:21:55 16° N visible
26 Oct 2.7 17:12:20 10° WSW 17:16:04 36° NW 17:20:20 10° NNE visible
26 Oct 4.0 18:59:18 10° NW 19:02:03 16° N 19:03:04 15° N visible
27 Oct 2.6 16:52:50 10° WSW 16:56:35 38° NW 17:00:54 10° NNE visible
27 Oct 4.0 18:39:45 10° NW 18:42:32 16° N 18:44:12 14° NNE visible
28 Oct 3.9 18:20:12 10° NW 18:23:02 16° NNW 18:25:18 12° NNE visible
28 Oct 4.6 20:06:19 10° NNW 20:06:49 12° NNW 20:06:49 12° NNW visible
29 Oct 3.9 18:00:39 10° NW 18:03:30 17° NNW 18:06:25 11° NNE visible
29 Oct 4.4 19:46:51 10° NNW 19:47:55 13° NNW 19:47:55 13° NNW visible
30 Oct 3.8 17:41:06 10° NW 17:43:59 17° NNW 17:47:10 10° NNE visible
30 Oct 4.2 19:27:23 10° NNW 19:29:01 15° N 19:29:01 15° N visible
31 Oct 3.8 17:21:33 10° WNW 17:24:27 17° NNW 17:27:41 10° NNE visible
31 Oct 4.1 19:07:55 10° NNW 19:10:05 16° N 19:10:05 16° N visible
